Thedford, NE

1:55 PM CST on February 27, 2017 (GMT -0600)
Thedford

Weather History for KTIF - February, 2013

Change the Weather History Date:

Thursday, February 7, 2013

  Actual Average (KANW) Record (KANW)
Temperature  
Mean Temperature 38 °F -  
Max Temperature 51 °F 37 °F 68 °F (2015)
Min Temperature 23 °F 16 °F -11 °F (2004)
Degree Days  
Heating Degree Days 26    
Moisture  
Dew Point 20 °F    
Average Humidity 55    
Maximum Humidity 83    
Minimum Humidity 16    
Precipitation  
Precipitation 0.00 in - - ()
Sea Level Pressure  
Sea Level Pressure 30.09 in    
Wind  
Wind Speed 6 mph (NW)    
Max Wind Speed 18 mph    
Max Gust Speed 22 mph    
Visibility 10 miles    
Events      
Averages and records for this station are not official NWS values.
T = Trace of Precipitation, MM = Missing Value Source: NWS Daily Summary

Daily Weather History Graph

Daily Weather History Graph

Search for Another Location

Airport or City:

Trip Planner

Search our weather history database for the weather conditions in past years. The results will help you decide how hot, cold, wet, or windy it might be!

Date:

Astronomy

Feb. 07, 2013 Rise Set
Actual Time 7:47 AM CST 6:05 PM CST
Civil Twilight 7:18 AM CST 6:34 PM CST
Nautical Twilight 6:45 AM CST 7:07 PM CST
Astronomical Twilight 6:13 AM CST 7:40 PM CST
Moon 5:30 AM CST (2/7) 3:30 PM CST (2/7)
Length of Visible Light 11h 15m
Length of Day
10h 17m
Waning Crescent, 9% of the Moon is Illuminated
Feb 7
Waning Crescent
Feb 10
New
Feb 17
First Quarter
Feb 25
Full
Mar 4
Last Quarter

Hourly Weather History & Observations

Time (CST) Temp. Windchill Dew Point Humidity Pressure Visibility Wind Dir Wind Speed Gust Speed Precip Events Conditions
12:35 AM 35.6 °F 31.7 °F 27.5 °F 72% 30.02 in 10.0 mi NW 4.6 mph - N/A   Clear
12:55 AM 35.8 °F 30.9 °F 28.2 °F 74% 30.03 in 10.0 mi NW 5.8 mph - N/A   Scattered Clouds
1:15 AM 35.2 °F 30.3 °F 28.0 °F 75% 30.03 in 10.0 mi NW 5.8 mph - N/A   Scattered Clouds
1:35 AM 34.9 °F 29.9 °F 28.0 °F 76% 30.03 in 10.0 mi NW 5.8 mph - N/A   Clear
1:55 AM 35.8 °F 30.1 °F 28.4 °F 75% 30.03 in 10.0 mi NNW 6.9 mph - N/A   Clear
2:15 AM 37.8 °F 32.5 °F 28.2 °F 68% 30.02 in 10.0 mi NNW 6.9 mph - N/A   Mostly Cloudy
2:35 AM 37.4 °F - 27.5 °F 67% 30.00 in 10.0 mi Calm Calm - N/A   Mostly Cloudy
2:55 AM 36.9 °F - 27.5 °F 69% 30.02 in 10.0 mi Calm Calm - N/A   Mostly Cloudy
3:15 AM 36.7 °F 30.5 °F 28.0 °F 71% 30.04 in 10.0 mi WNW 8.1 mph - N/A   Mostly Cloudy
3:35 AM 35.1 °F 30.1 °F 27.3 °F 73% 30.05 in 10.0 mi WNW 5.8 mph - N/A   Scattered Clouds
3:55 AM 34.7 °F 28.8 °F 26.8 °F 73% 30.04 in 10.0 mi West 6.9 mph - N/A   Clear
4:15 AM 32.2 °F 25.0 °F 25.9 °F 78% 30.05 in 10.0 mi West 8.1 mph - N/A   Clear
4:35 AM 31.3 °F 25.6 °F 25.5 °F 79% 30.05 in 10.0 mi West 5.8 mph - N/A   Clear
4:55 AM 30.7 °F 23.3 °F 25.5 °F 81% 30.05 in 10.0 mi WNW 8.1 mph - N/A   Clear
5:15 AM 30.4 °F 25.6 °F 24.8 °F 80% 30.06 in 10.0 mi WNW 4.6 mph - N/A   Clear
5:35 AM 30.0 °F 26.5 °F 25.0 °F 82% 30.05 in 10.0 mi WNW 3.5 mph - N/A   Clear
5:55 AM 28.9 °F 21.9 °F 23.9 °F 81% 30.05 in 10.0 mi WNW 6.9 mph - N/A   Clear
6:15 AM 29.8 °F 22.2 °F 24.4 °F 80% 30.05 in 10.0 mi West 8.1 mph - N/A   Clear
6:35 AM 29.3 °F 21.5 °F 24.1 °F 81% 30.05 in 10.0 mi WNW 8.1 mph - N/A   Clear
6:55 AM 28.9 °F 19.2 °F 23.9 °F 81% 30.05 in 10.0 mi West 11.5 mph - N/A   Clear
7:15 AM 29.1 °F 20.6 °F 24.3 °F 82% 30.06 in 10.0 mi WNW 9.2 mph - N/A   Clear
7:35 AM 28.4 °F 21.2 °F 23.9 °F 83% 30.07 in 10.0 mi WNW 6.9 mph - N/A   Clear
7:55 AM 28.8 °F 21.7 °F 23.9 °F 82% 30.07 in 10.0 mi WNW 6.9 mph - N/A   Clear
8:15 AM 29.3 °F 23.2 °F 24.6 °F 83% 30.08 in 10.0 mi WNW 5.8 mph - N/A   Clear
8:35 AM 29.1 °F 23.0 °F 24.1 °F 81% 30.09 in 10.0 mi WNW 5.8 mph - N/A   Clear
8:55 AM 30.6 °F 24.7 °F 25.5 °F 82% 30.10 in 10.0 mi WNW 5.8 mph - N/A   Clear
9:15 AM 32.5 °F 26.2 °F 26.6 °F 79% 30.11 in 10.0 mi WNW 6.9 mph - N/A   Clear
9:35 AM 34.7 °F 27.5 °F 27.3 °F 74% 30.11 in 10.0 mi WNW 9.2 mph - N/A   Clear
9:55 AM 37.8 °F 31.8 °F 28.6 °F 69% 30.11 in 10.0 mi WNW 8.1 mph - N/A   Clear
10:15 AM 40.6 °F 35.4 °F 28.2 °F 61% 30.11 in 10.0 mi WNW 8.1 mph - N/A   Clear
10:35 AM 43.0 °F 38.2 °F 27.5 °F 54% 30.11 in 10.0 mi NW 8.1 mph - N/A   Clear
10:55 AM 45.0 °F 39.3 °F 26.4 °F 48% 30.11 in 10.0 mi NW 11.5 mph - N/A   Clear
11:15 AM 47.1 °F - 25.2 °F 42% 30.11 in 10.0 mi WNW 12.7 mph - N/A   Clear
11:35 AM 48.4 °F - 23.2 °F 37% 30.11 in 10.0 mi WNW 10.4 mph - N/A   Clear
11:55 AM 49.1 °F - 19.4 °F 31% 30.11 in 10.0 mi NNW 18.4 mph - N/A   Clear
12:15 PM 49.3 °F - 20.1 °F 32% 30.11 in 10.0 mi NNW 16.1 mph - N/A   Clear
12:35 PM 49.5 °F - 18.9 °F 30% 30.10 in 10.0 mi NW 12.7 mph 20.7 mph N/A   Clear
12:55 PM 50.5 °F - 18.1 °F 28% 30.10 in 10.0 mi NW 13.8 mph 19.6 mph N/A   Clear
1:15 PM 51.3 °F - 15.3 °F 24% 30.10 in 10.0 mi North 10.4 mph 19.6 mph N/A   Clear
1:35 PM 51.3 °F - 13.8 °F 23% 30.10 in 10.0 mi NNW 13.8 mph 18.4 mph N/A   Clear
1:55 PM 51.4 °F - 11.7 °F 20% 30.09 in 10.0 mi North 10.4 mph 16.1 mph N/A   Clear
2:15 PM 51.6 °F - 9.5 °F 18% 30.09 in 10.0 mi NNW 12.7 mph - N/A   Clear
2:35 PM 51.8 °F - 9.0 °F 18% 30.08 in 10.0 mi North 12.7 mph 20.7 mph N/A   Clear
2:55 PM 51.8 °F - 8.4 °F 17% 30.08 in 10.0 mi NW 13.8 mph 21.9 mph N/A   Clear
3:15 PM 51.8 °F - 6.8 °F 16% 30.08 in 10.0 mi NNW 10.4 mph - N/A   Clear
3:35 PM 51.8 °F - 7.7 °F 17% 30.08 in 10.0 mi WNW 11.5 mph 17.3 mph N/A   Clear
3:55 PM 51.3 °F - 9.0 °F 18% 30.09 in 10.0 mi North 6.9 mph - N/A   Clear
4:15 PM 51.4 °F - 9.0 °F 18% 30.08 in 10.0 mi NW 8.1 mph - N/A   Clear
4:35 PM 51.3 °F - 8.2 °F 18% 30.08 in 10.0 mi NNW 10.4 mph - N/A   Clear
4:55 PM 50.4 °F - 5.9 °F 16% 30.09 in 10.0 mi NW 5.8 mph - N/A   Clear
5:35 PM 47.8 °F - 8.4 °F 20% 30.10 in 10.0 mi NNW 5.8 mph - N/A   Clear
5:55 PM 45.1 °F 43.7 °F 9.5 °F 23% 30.10 in 10.0 mi NNW 3.5 mph - N/A   Clear
6:15 PM 44.1 °F - 9.5 °F 24% 30.11 in 10.0 mi Calm Calm - N/A   Clear
6:35 PM 40.1 °F - 10.9 °F 30% 30.11 in 10.0 mi Calm Calm - N/A   Clear
6:55 PM 41.0 °F - 10.4 °F 29% 30.11 in 10.0 mi Calm Calm - N/A   Clear
7:15 PM 34.0 °F - 13.1 °F 42% 30.12 in 10.0 mi Calm Calm - N/A   Clear
7:35 PM 32.9 °F - 14.2 °F 46% 30.12 in 10.0 mi Calm Calm - N/A   Clear
7:55 PM 31.1 °F 27.7 °F 13.8 °F 49% 30.13 in 10.0 mi East 3.5 mph - N/A   Clear
8:15 PM 33.6 °F - 14.7 °F 46% 30.13 in 10.0 mi Calm Calm - N/A   Clear
8:35 PM 32.4 °F 29.1 °F 15.6 °F 50% 30.13 in 10.0 mi SE 3.5 mph - N/A   Clear
8:55 PM 31.1 °F 26.4 °F 16.5 °F 55% 30.13 in 10.0 mi SE 4.6 mph - N/A   Clear
9:15 PM 30.4 °F 25.6 °F 17.2 °F 58% 30.13 in 10.0 mi SE 4.6 mph - N/A   Clear
9:35 PM 30.0 °F - 18.5 °F 62% 30.13 in 10.0 mi Calm Calm - N/A   Clear
9:55 PM 29.1 °F 23.0 °F 18.9 °F 66% 30.13 in 10.0 mi SE 5.8 mph - N/A   Clear
10:15 PM 29.1 °F 25.4 °F 18.9 °F 66% 30.14 in 10.0 mi ESE 3.5 mph - N/A   Clear
10:35 PM 26.8 °F - 18.3 °F 70% 30.14 in 10.0 mi Calm Calm - N/A   Clear
10:55 PM 27.0 °F - 18.9 °F 72% 30.14 in 10.0 mi Calm Calm - N/A   Clear
11:15 PM 26.2 °F - 19.0 °F 74% 30.14 in 10.0 mi Calm Calm - N/A   Clear
11:35 PM 26.1 °F - 19.2 °F 75% 30.14 in 10.0 mi Calm Calm - N/A   Clear
11:55 PM 23.2 °F 18.7 °F 17.1 °F 77% 30.14 in 10.0 mi SE 3.5 mph - N/A   Clear